DW2891 Weather Reports


Display with metric or nautical units.
time (UTC)temp
F
wind
direction
speed
MPH
gust
MPH
rain 1hr
in
rain 24hr
in
rain mn
in
humidity
%
barometer
mb
20260503190606 76 348 0.0 0.0 0.00 0.00 0.00 39 1013.6
20260503190105 74 350 6.0 14.0 0.00 0.00 0.00 39 1013.7
20260503185605 75 352 3.0 10.0 0.00 0.00 0.00 39 1013.7
20260503185105 75 312 2.0 10.0 0.00 0.00 0.00 38 1013.7
20260503184605 75 312 1.0 6.0 0.00 0.00 0.00 42 1013.7
20260503184104 75 332 0.0 5.0 0.00 0.00 0.00 41 1013.8
20260503183604 75 355 0.0 1.0 0.00 0.00 0.00 48 1013.8
20260503183104 74 89 0.0 5.0 0.00 0.00 0.00 46 1013.8
20260503182606 73 355 0.0 5.0 0.00 0.00 0.00 51 1013.8
20260503182104 74 55 0.0 6.0 0.00 0.00 0.00 48 1013.8
20260503181604 73 69 0.0 3.0 0.00 0.00 0.00 50 1013.8
20260503180605 73 60 1.0 6.0 0.00 0.00 0.00 46 1013.8
20260503180105 73 42 1.0 5.0 0.00 0.00 0.00 45 1013.8
20260503175605 73 308 2.0 14.0 0.00 0.00 0.00 45 1013.8
20260503175105 73 304 5.0 9.0 0.00 0.00 0.00 43 1013.9
20260503174605 74 322 2.0 8.0 0.00 0.00 0.00 40 1013.9
20260503174106 74 320 4.0 9.0 0.00 0.00 0.00 43 1013.9
20260503173605 73 32 3.0 12.0 0.00 0.00 0.00 43 1014.0
20260503173105 73 341 0.0 12.0 0.00 0.00 0.00 44 1014.0
20260503172605 73 315 9.0 14.0 0.00 0.00 0.00 42 1014.0
20260503172104 73 200 0.0 2.0 0.00 0.00 0.00 40 1014.0
20260503171604 73 267 0.0 1.0 0.00 0.00 0.00 44 1014.1
20260503171105 72 11 0.0 5.0 0.00 0.00 0.00 46 1014.1
20260503170105 71 324 0.0 9.0 0.00 0.00 0.00 46 1014.1
20260503160105 67 306 0.0 0.0 0.00 0.00 0.00 50 1014.1
20260503150605 63 261 0.0 1.0 0.00 0.00 0.00 56 1014.5
20260503150105 63 292 0.0 0.0 0.00 0.00 0.00 55 1014.5
20260503140105 64 343 0.0 1.0 0.00 0.00 0.00 54 1014.4
20260503130605 64 306 3.0 16.0 0.00 0.00 0.00 50 1014.5
20260503130104 64 351 6.0 14.0 0.00 0.00 0.00 50 1014.6
20260503120104 65 313 4.0 14.0 0.00 0.00 0.00 48 1014.6
20260503110605 65 333 1.0 5.0 0.00 0.00 0.00 48 1014.6
20260503110105 65 324 1.0 17.0 0.00 0.00 0.00 49 1014.5
20260503100105 67 353 2.0 9.0 0.00 0.00 0.00 45 1014.6
20260503090104 68 334 6.0 17.0 0.00 0.00 0.00 42 1014.7
20260503081105 67 290 2.0 10.0 0.00 0.00 0.00 44 1014.9
20260503080606 67 284 9.0 20.0 0.00 0.00 0.00 44 1014.9
20260503080104 66 302 2.0 9.0 0.00 0.00 0.00 50 1014.9
20260503072606 68 27 3.0 10.0 0.00 0.00 0.00 45 1014.9
20260503072104 67 309 1.0 8.0 0.00 0.00 0.00 50 1014.8
20260503071605 67 6 2.0 16.0 0.00 0.00 0.00 47 1014.7
20260503071105 65 307 1.0 9.0 0.00 0.00 0.00 50 1014.7
20260503070104 65 315 0.0 6.0 0.00 0.00 0.00 51 1014.7
20260503060104 67 321 2.0 9.0 0.00 0.00 0.00 46 1014.7
20260503055104 65 317 0.0 0.0 0.00 0.00 0.00 52 1014.8
20260503054604 66 317 0.0 2.0 0.00 0.00 0.00 51 1014.8
20260503054104 66 317 2.0 8.0 0.00 0.00 0.00 50 1014.7
20260503053605 67 15 0.0 3.0 0.00 0.00 0.00 47 1014.7
20260503052604 66 28 0.0 0.0 0.00 0.00 0.00 49 1014.7
20260503052105 67 28 1.0 6.0 0.00 0.00 0.00 46 1014.7
20260503051604 67 78 0.0 5.0 0.00 0.00 0.00 47 1014.8
20260503050604 66 304 0.0 5.0 0.00 0.00 0.00 48 1014.8
20260503044605 66 29 0.0 0.0 0.00 0.00 0.00 44 1014.7
20260503044105 66 13 0.0 0.0 0.00 0.00 0.00 46 1014.7
20260503043605 67 8 1.0 9.0 0.00 0.00 0.00 44 1014.7
20260503042604 67 167 0.0 10.0 0.00 0.00 0.00 44 1014.5
20260503042104 66 5 0.0 0.0 0.00 0.00 0.00 48 1014.6
20260503041604 67 5 0.0 0.0 0.00 0.00 0.00 47 1014.4
20260503041106 67 5 0.0 1.0 0.00 0.00 0.00 43 1014.4
20260503040605 67 346 0.0 1.0 0.00 0.00 0.00 47 1014.5
20260503040104 66 345 0.0 3.0 0.00 0.00 0.00 49 1014.4
20260503035105 67 346 2.0 8.0 0.00 0.00 0.00 47 1014.3
20260503034104 67 325 0.0 9.0 0.00 0.00 0.00 50 1014.3
20260503033604 67 28 0.0 2.0 0.00 0.00 0.00 50 1014.2
20260503033104 67 28 0.0 0.0 0.00 0.00 0.00 47 1014.1
20260503032604 67 28 0.0 0.0 0.00 0.00 0.00 50 1014.0
20260503031605 67 28 0.0 2.0 0.00 0.00 0.00 47 1014.0
20260503031104 67 34 1.0 6.0 0.00 0.00 0.00 45 1013.9
20260503030604 67 315 1.0 10.0 0.00 0.00 0.00 51 1013.9
20260503030104 67 5 0.0 0.0 0.00 0.00 0.00 53 1013.9
20260503025605 67 5 0.0 0.0 0.00 0.00 0.00 50 1013.8
20260503025105 67 5 0.0 0.0 0.00 0.00 0.00 51 1013.8
20260503024105 67 348 0.0 0.0 0.00 0.00 0.00 49 1013.7
20260503023604 68 348 0.0 0.0 0.00 0.00 0.00 50 1013.7
20260503023104 68 348 0.0 0.0 0.00 0.00 0.00 49 1013.7
20260503022604 68 348 0.0 0.0 0.00 0.00 0.00 49 1013.8
20260503021605 68 348 0.0 0.0 0.00 0.00 0.00 49 1013.8
20260503020604 68 348 0.0 0.0 0.00 0.00 0.00 50 1013.8
20260503020105 69 348 0.0 0.0 0.00 0.00 0.00 48 1013.8
20260503015104 70 348 1.0 6.0 0.00 0.00 0.00 43 1013.9
20260503014604 70 311 1.0 5.0 0.00 0.00 0.00 49 1014.1
20260503014104 70 92 0.0 0.0 0.00 0.00 0.00 49 1014.1
20260503013604 70 92 0.0 0.0 0.00 0.00 0.00 49 1014.2
20260503012604 70 279 0.0 1.0 0.00 0.00 0.00 47 1014.1
20260503012104 71 238 0.0 0.0 0.00 0.00 0.00 45 1014.2
20260503011604 72 258 0.0 0.0 0.00 0.00 0.00 45 1014.2
20260503011104 73 259 0.0 2.0 0.00 0.00 0.00 43 1014.1
20260503010604 73 275 0.0 10.0 0.00 0.00 0.00 40 1014.1
20260503010104 72 321 1.0 6.0 0.00 0.00 0.00 43 1014.1
20260503005604 73 190 0.0 0.0 0.00 0.00 0.00 44 1014.1
20260503005104 73 190 0.0 2.0 0.00 0.00 0.00 45 1014.2
20260503004604 74 260 0.0 0.0 0.00 0.00 0.00 43 1014.2
20260503004105 74 260 2.0 13.0 0.00 0.00 0.00 37 1014.3
20260503003605 74 305 0.0 10.0 0.00 0.00 0.00 40 1014.3
20260503003104 74 297 1.0 6.0 0.00 0.00 0.00 42 1014.3
20260503002604 74 301 0.0 0.0 0.00 0.00 0.00 40 1014.3
20260503001604 75 304 1.0 6.0 0.00 0.00 0.00 35 1014.5
20260503001104 75 277 1.0 6.0 0.00 0.00 0.00 38 1014.5
20260503000104 74 305 3.0 16.0 0.00 0.00 0.00 37 1014.6
20260502235104 75 321 0.0 0.0 0.00 0.00 0.00 38 1014.7
20260502234604 75 335 2.0 9.0 0.00 0.00 0.00 38 1014.8
20260502234104 75 351 2.0 14.0 0.00 0.00 0.00 36 1014.8
20260502233605 75 328 0.0 2.0 0.00 0.00 0.00 41 1014.9
20260502233104 75 239 0.0 10.0 0.00 0.00 0.00 38 1014.9
20260502232604 75 355 0.0 0.0 0.00 0.00 0.00 37 1014.9
20260502232105 76 328 1.0 8.0 0.00 0.00 0.00 37 1015.0
20260502231604 76 322 0.0 0.0 0.00 0.00 0.00 38 1015.1
20260502230604 76 291 1.0 9.0 0.00 0.00 0.00 37 1015.3
20260502230104 76 329 5.0 14.0 0.00 0.00 0.00 36 1015.5
20260502225604 76 269 1.0 3.0 0.00 0.00 0.00 38 1015.6
20260502225104 76 55 2.0 6.0 0.00 0.00 0.00 39 1015.6
20260502224605 75 304 0.0 9.0 0.00 0.00 0.00 38 1015.6
20260502223604 75 271 0.0 6.0 0.00 0.00 0.00 36 1015.7
20260502223104 75 302 2.0 15.0 0.00 0.00 0.00 37 1015.8
20260502222604 75 2 1.0 9.0 0.00 0.00 0.00 42 1015.9
20260502222104 75 270 1.0 5.0 0.00 0.00 0.00 39 1015.8
20260502221605 75 325 1.0 10.0 0.00 0.00 0.00 42 1016.0
20260502221104 75 329 0.0 10.0 0.00 0.00 0.00 42 1016.0
20260502220604 74 251 2.0 9.0 0.00 0.00 0.00 41 1016.0
20260502215604 74 53 0.0 0.0 0.00 0.00 0.00 46 1016.0
20260502215104 74 317 6.0 15.0 0.00 0.00 0.00 45 1016.0
20260502214604 74 333 2.0 12.0 0.00 0.00 0.00 45 1016.0
20260502214104 74 332 0.0 2.0 0.00 0.00 0.00 47 1016.1
20260502213604 74 47 0.0 1.0 0.00 0.00 0.00 46 1016.1
20260502213104 74 319 1.0 6.0 0.00 0.00 0.00 46 1016.1
20260502212604 74 300 1.0 8.0 0.00 0.00 0.00 45 1016.2
20260502212104 74 333 1.0 5.0 0.00 0.00 0.00 43 1016.2
20260502211604 74 313 0.0 6.0 0.00 0.00 0.00 43 1016.2
20260502211104 74 334 2.0 8.0 0.00 0.00 0.00 45 1016.3
20260502210604 74 315 1.0 5.0 0.00 0.00 0.00 43 1016.3
20260502210104 74 331 2.0 8.0 0.00 0.00 0.00 40 1016.4
20260502205604 74 312 3.0 14.0 0.00 0.00 0.00 38 1016.5
20260502204604 74 312 1.0 6.0 0.00 0.00 0.00 40 1016.5
20260502204104 73 338 5.0 9.0 0.00 0.00 0.00 39 1016.5
20260502203104 73 49 0.0 8.0 0.00 0.00 0.00 40 1016.7
20260502202604 73 53 2.0 9.0 0.00 0.00 0.00 42 1016.7
20260502201604 73 335 5.0 12.0 0.00 0.00 0.00 44 1016.8
20260502200103 72 353 3.0 6.0 0.00 0.00 0.00 44 1016.9
20260502195604 72 328 2.0 15.0 0.00 0.00 0.00 46 1016.9
20260502195105 72 342 1.0 9.0 0.00 0.00 0.00 46 1017.0
20260502194604 72 313 4.0 16.0 0.00 0.00 0.00 47 1017.0
20260502194104 71 317 3.0 17.0 0.00 0.00 0.00 46 1017.0
20260502193604 71 305 2.0 8.0 0.00 0.00 0.00 48 1017.0
20260502193104 71 2 1.0 9.0 0.00 0.00 0.00 46 1017.1
20260502192605 71 316 5.0 15.0 0.00 0.00 0.00 48 1017.1
20260502191604 71 331 2.0 8.0 0.00 0.00 0.00 47 1017.2
20260502191104 71 335 5.0 12.0 0.00 0.00 0.00 47 1017.3